Regional Weather Roundup
Issued by NWS Kansas City/Pleasant Hill, MO

Home | Current Version | Previous Version | Text Only | Print | Product List | Glossary On
Versions: 1 2 3 4 5 6 7 8 9 10 11 12 13 14 15 16 17 18 19 20 21 22 23 24 25 26 27 28 29 30 31 32 33 34 35 36 37 38 39 40 41 42 43 44 45 46 47 48 49 50
000
ASUS43 KEAX 291410
RWREAX

WEATHER ROUNDUP FOR EASTERN KANSAS AND NORTHWEST MISSOURI
NATIONAL WEATHER SERVICE KANSAS CITY/PLEASANT HILL MO
900 AM CDT SAT AUG 29 2015

KSZ040-057-103>105-MOZ028-029-037-043-291500-
...KANSAS CITY METROPOLITAN AREA...

CITY           SKY/WX    TMP DP  RH WIND       PRES   REMARKS
K.C. INTL      CLOUDY    68  65  90 N7        30.00R
K.C. DOWNTOWN  CLOUDY    70  67  90 NW5       29.99R
LEES SUMMIT    CLOUDY    71  67  87 N6        30.00R
OLATHE - IXD   CLOUDY    67  66  97 N6        30.01S
OLATHE - OJC   CLOUDY    68  66  93 N7        30.00R
LAWRENCE       CLOUDY    69  63  81 N7        30.01R

$$

MOZ001>008-011>017-020>025-030>033-038>040-044>046-053-054-291500-
...NORTHERN AND CENTRAL MISSOURI...

CITY           SKY/WX    TMP DP  RH WIND       PRES   REMARKS
ST. JOSEPH     CLOUDY    67  65  93 N8        30.00S
MOSBY          CLOUDY    70  68  94 NW6       29.99R
WARRENSBURG    CLOUDY    70  64  83 S6        29.99S
WHITEMAN AFB   CLOUDY    71  66  83 W8        29.98S
CLINTON          N/A     72  66  83 CALM      30.00R
SEDALIA        CLOUDY    71  63  75 S8G23     30.01R
WARSAW         NOT AVBL
CHILLICOTHE      N/A     73  69  87 CALM      29.98S
KIRKSVILLE     CLOUDY    70  64  81 CALM      29.99S

$$

MOZ041-047>049-056>058-063>065-088>090-097-291500-
...EASTERN AND SOUTHERN MISSOURI...

CITY           SKY/WX    TMP DP  RH WIND       PRES   REMARKS
ST. LOUIS INTL CLOUDY    75  64  68 S7        30.03S
SPIRIT OF STL  CLOUDY    72  66  81 CALM      30.01S
COLUMBIA       PTSUNNY   70  63  78 S8        30.01R
JEFFERSON CITY PTSUNNY   73  63  70 SE5       30.01R
ROLLA          LGT RAIN  66  64  93 S10       30.02F
OSAGE BEACH    CLOUDY    72  61  68 S7        30.03R
SPRINGFIELD    MOSUNNY   68  62  81 SE10      30.03R
BRANSON        CLOUDY    66  64  94 SE6       30.05S
JOPLIN         SUNNY     74  63  68 S10       30.00S
WEST PLAINS    LGT RAIN  65  63  93 CALM      30.09F FOG

$$

IAZ060-094-KSZ022-034>040-054-083-096-NEZ052-066-093-291500-
...KANSAS...SOUTHEAST NEBRASKA AND IOWA...

CITY           SKY/WX    TMP DP  RH WIND       PRES   REMARKS
TOPEKA         CLOUDY    67  65  93 N3        30.02R
MANHATTAN      CLOUDY    66  62  87 N7        30.03S
EMPORIA        CLOUDY    66  63  90 N5        30.03R
CHANUTE        CLOUDY    70  65  84 N6        30.01R
WICHITA        MOSUNNY   71  63  75 N9        30.04R
OMAHA          CLOUDY    62  60  93 N8        30.06S
LINCOLN        CLOUDY    61  59  93 N10       30.08S
FALLS CITY     CLOUDY    64  63  96 N10       30.02R
LAMONI         CLOUDY    66  63  90 N8        30.01R
DES MOINES     CLOUDY    65  61  87 N7        30.00S

$$




USA.gov is the U.S. government's official web portal to all federal, state and local government web resources and services.